owner,sensor,date,latitude,longitude,vertical_datum,direction_of_sea_water_velocity,sea_water_speed,upward_sea_water_velocity,qcFlag 
TABS,ioos:station:wmo:42043:1,2017-11-01T00:00:00Z,28.9818,-94.9186,2.0,199.9034925,6.168468205,-99999.0,'11133222,11111222,99999999' 
TABS,ioos:station:wmo:42043:1,2017-11-01T00:30:00Z,28.9818,-94.9186,2.0,224.9996843,3.959797975,-99999.0,'11133222,11111222,99999999' 
TABS,ioos:station:wmo:42043:1,2017-11-01T01:00:00Z,28.9818,-94.9186,2.0,226.1931709,6.789698079,-99999.0,'11133222,11111222,99999999' 
TABS,ioos:station:wmo:42043:1,2017-11-01T01:30:00Z,28.9818,-94.9186,2.0,249.0751263,3.640054945,-99999.0,'11133222,11111222,99999999' 
TABS,ioos:station:wmo:42043:1,2017-11-01T02:00:00Z,28.9818,-94.9186,2.0,47.12119667,1.910497317,-99999.0,'11133222,11111222,99999999' 
TABS,ioos:station:wmo:42043:1,2017-11-01T02:30:00Z,28.9818,-94.9186,2.0,356.1861445,1.503329638,-99999.0,'11133222,11111222,99999999' 
TABS,ioos:station:wmo:42043:1,2017-11-01T03:00:00Z,28.9818,-94.9186,2.0,351.8701271,0.707106781,-99999.0,'11133222,11111222,99999999' 
TABS,ioos:station:wmo:42043:1,2017-11-01T03:30:00Z,28.9818,-94.9186,2.0,39.28952545,4.263801121,-99999.0,'11133222,11111222,99999999' 
TABS,ioos:station:wmo:42043:1,2017-11-01T04:00:00Z,28.9818,-94.9186,2.0,41.63365244,2.408318916,-99999.0,'11133222,11111222,99999999' 
TABS,ioos:station:wmo:42043:1,2017-11-01T04:30:00Z,28.9818,-94.9186,2.0,51.84286264,1.780449381,-99999.0,'11133222,11111222,99999999' 
TABS,ioos:station:wmo:42043:1,2017-11-01T05:00:00Z,28.9818,-94.9186,2.0,307.5689251,1.640121947,-99999.0,'11133222,11111222,99999999' 
TABS,ioos:station:wmo:42043:1,2017-11-01T05:30:00Z,28.9818,-94.9186,2.0,158.198431,2.692582404,-99999.0,'11133222,11111222,99999999' 
TABS,ioos:station:wmo:42043:1,2017-11-01T06:00:00Z,28.9818,-94.9186,2.0,114.1021781,4.162931659,-99999.0,'11133222,11111222,99999999' 
TABS,ioos:station:wmo:42043:1,2017-11-01T06:30:00Z,28.9818,-94.9186,2.0,186.7096107,3.423448554,-99999.0,'11133222,11111222,99999999' 
TABS,ioos:station:wmo:42043:1,2017-11-01T07:00:00Z,28.9818,-94.9186,2.0,210.9634737,4.664761516,-99999.0,'11133222,11111222,99999999' 
TABS,ioos:station:wmo:42043:1,2017-11-01T07:30:00Z,28.9818,-94.9186,2.0,203.629112,3.492849839,-99999.0,'11133222,11111222,99999999' 
TABS,ioos:station:wmo:42043:1,2017-11-01T08:00:00Z,28.9818,-94.9186,2.0,127.5685042,1.640121947,-99999.0,'11133222,11111222,99999999' 
TABS,ioos:station:wmo:42043:1,2017-11-01T08:30:00Z,28.9818,-94.9186,2.0,164.1806326,6.236184731,-99999.0,'11133222,11111222,99999999' 
TABS,ioos:station:wmo:42043:1,2017-11-01T09:00:00Z,28.9818,-94.9186,2.0,200.5557867,3.417601498,-99999.0,'11133222,11111222,99999999' 
TABS,ioos:station:wmo:42043:1,2017-11-01T09:30:00Z,28.9818,-94.9186,2.0,226.1688209,3.46554469,-99999.0,'11133222,11111222,99999999' 
TABS,ioos:station:wmo:42043:1,2017-11-01T10:00:00Z,28.9818,-94.9186,2.0,253.559238,6.360031446,-99999.0,'11133222,11111222,99999999' 
TABS,ioos:station:wmo:42043:1,2017-11-01T10:30:00Z,28.9818,-94.9186,2.0,276.1705816,3.721558813,-99999.0,'11133222,11111222,99999999' 
TABS,ioos:station:wmo:42043:1,2017-11-01T11:00:00Z,28.9818,-94.9186,2.0,274.5743315,2.507987241,-99999.0,'11133222,11111222,99999999' 
TABS,ioos:station:wmo:42043:1,2017-11-01T11:30:00Z,28.9818,-94.9186,2.0,41.63365244,10.83743512,-99999.0,'11111222,11111222,99999999' 
TABS,ioos:station:wmo:42043:1,2017-11-01T12:00:00Z,28.9818,-94.9186,2.0,288.4353266,2.529822128,-99999.0,'11133222,11111222,99999999' 
TABS,ioos:station:wmo:42043:1,2017-11-01T12:30:00Z,28.9818,-94.9186,2.0,12.60034082,8.709764635,-99999.0,'11133222,11111222,99999999' 
TABS,ioos:station:wmo:42043:1,2017-11-01T13:00:00Z,28.9818,-94.9186,2.0,297.4079323,3.041381265,-99999.0,'11133222,11111222,99999999' 
TABS,ioos:station:wmo:42043:1,2017-11-01T13:30:00Z,28.9818,-94.9186,2.0,266.6331263,1.702938637,-99999.0,'11133222,11111222,99999999' 
TABS,ioos:station:wmo:42043:1,2017-11-01T14:00:00Z,28.9818,-94.9186,2.0,39.71467084,16.11986352,-99999.0,'11111222,11111222,99999999' 
TABS,ioos:station:wmo:42043:1,2017-11-01T14:30:00Z,28.9818,-94.9186,2.0,113.6293225,1.74642492,-99999.0,'11133222,11111222,99999999' 
TABS,ioos:station:wmo:42043:1,2017-11-01T15:00:00Z,28.9818,-94.9186,2.0,347.6194825,8.395236745,-99999.0,'11133222,11111222,99999999' 
TABS,ioos:station:wmo:42043:1,2017-11-01T15:30:00Z,28.9818,-94.9186,2.0,92.60255612,2.202271555,-99999.0,'11133222,11111222,99999999' 
TABS,ioos:station:wmo:42043:1,2017-11-01T16:00:00Z,28.9818,-94.9186,2.0,65.77231134,4.38634244,-99999.0,'11133222,11111222,99999999' 
TABS,ioos:station:wmo:42043:1,2017-11-01T16:30:00Z,28.9818,-94.9186,2.0,138.4681159,4.675467891,-99999.0,'11133222,11111222,99999999' 
TABS,ioos:station:wmo:42043:1,2017-11-01T17:00:00Z,28.9818,-94.9186,2.0,139.5376567,4.468780594,-99999.0,'11133222,11111222,99999999' 
TABS,ioos:station:wmo:42043:1,2017-11-01T17:30:00Z,28.9818,-94.9186,2.0,150.7510316,5.730619513,-99999.0,'11133222,11111222,99999999' 
TABS,ioos:station:wmo:42043:1,2017-11-01T18:00:00Z,28.9818,-94.9186,2.0,100.7842726,2.137755833,-99999.0,'11133222,11111222,99999999' 
TABS,ioos:station:wmo:42043:1,2017-11-01T18:30:00Z,28.9818,-94.9186,2.0,210.9634737,1.749285568,-99999.0,'11133222,11111222,99999999' 
TABS,ioos:station:wmo:42043:1,2017-11-01T19:00:00Z,28.9818,-94.9186,2.0,102.8042361,4.512205669,-99999.0,'11133222,11111222,99999999' 
TABS,ioos:station:wmo:42043:1,2017-11-01T19:30:00Z,28.9818,-94.9186,2.0,93.17982268,3.605551275,-99999.0,'11133222,11111222,99999999' 
TABS,ioos:station:wmo:42043:1,2017-11-01T20:00:00Z,28.9818,-94.9186,2.0,176.1857236,1.503329638,-99999.0,'11133222,11111222,99999999' 
TABS,ioos:station:wmo:42043:1,2017-11-01T20:30:00Z,28.9818,-94.9186,2.0,255.9633684,0.824621125,-99999.0,'11133222,11111222,99999999' 
TABS,ioos:station:wmo:42043:1,2017-11-01T21:00:00Z,28.9818,-94.9186,2.0,124.2867968,5.325410782,-99999.0,'11133222,11111222,99999999' 
TABS,ioos:station:wmo:42043:1,2017-11-01T21:30:00Z,28.9818,-94.9186,2.0,174.9201936,4.517742799,-99999.0,'11133222,11111222,99999999' 
TABS,ioos:station:wmo:42043:1,2017-11-01T22:00:00Z,28.9818,-94.9186,2.0,166.2182245,5.45710546,-99999.0,'11133222,11111222,99999999' 
TABS,ioos:station:wmo:42043:1,2017-11-01T22:30:00Z,28.9818,-94.9186,2.0,146.0562819,6.268173578,-99999.0,'11133222,11111222,99999999' 
TABS,ioos:station:wmo:42043:1,2017-11-01T23:00:00Z,28.9818,-94.9186,2.0,169.8751416,8.532877592,-99999.0,'11133222,11111222,99999999' 
TABS,ioos:station:wmo:42043:1,2017-11-01T23:30:00Z,28.9818,-94.9186,2.0,135.7072125,5.728001397,-99999.0,'11133222,11111222,99999999' 
TABS,ioos:station:wmo:42043:1,2017-11-02T00:00:00Z,28.9818,-94.9186,2.0,152.6759621,6.753517602,-99999.0,'11133222,11111222,99999999' 
TABS,ioos:station:wmo:42043:1,2017-11-02T00:30:00Z,28.9818,-94.9186,2.0,161.5648838,7.90569415,-99999.0,'11133222,11111222,99999999' 
TABS,ioos:station:wmo:42043:1,2017-11-02T01:00:00Z,28.9818,-94.9186,2.0,155.6134755,8.23468275,-99999.0,'11133222,11111222,99999999' 
TABS,ioos:station:wmo:42043:1,2017-11-02T01:30:00Z,28.9818,-94.9186,2.0,150.395408,5.060632372,-99999.0,'11133222,11111222,99999999' 
TABS,ioos:station:wmo:42043:1,2017-11-02T02:00:00Z,28.9818,-94.9186,2.0,160.6408406,3.92173431,-99999.0,'11133222,11111222,99999999' 
TABS,ioos:station:wmo:42043:1,2017-11-02T02:30:00Z,28.9818,-94.9186,2.0,146.9291891,5.131276644,-99999.0,'11133222,11111222,99999999' 
TABS,ioos:station:wmo:42043:1,2017-11-02T03:00:00Z,28.9818,-94.9186,2.0,134.9998948,5.515432893,-99999.0,'11133222,11111222,99999999' 
TABS,ioos:station:wmo:42043:1,2017-11-02T03:30:00Z,28.9818,-94.9186,2.0,152.3003815,4.517742799,-99999.0,'11133222,11111222,99999999' 
TABS,ioos:station:wmo:42043:1,2017-11-02T04:00:00Z,28.9818,-94.9186,2.0,187.5944152,6.05309838,-99999.0,'11133222,11111222,99999999' 
TABS,ioos:station:wmo:42043:1,2017-11-02T04:30:00Z,28.9818,-94.9186,2.0,199.0253511,3.06757233,-99999.0,'11133222,11111222,99999999' 
TABS,ioos:station:wmo:42043:1,2017-11-02T05:00:00Z,28.9818,-94.9186,2.0,189.65966,4.767598976,-99999.0,'11133222,11111222,99999999' 
TABS,ioos:station:wmo:42043:1,2017-11-02T05:30:00Z,28.9818,-94.9186,2.0,262.8745794,2.418677324,-99999.0,'11133222,11111222,99999999' 
TABS,ioos:station:wmo:42043:1,2017-11-02T06:00:00Z,28.9818,-94.9186,2.0,229.4968254,6.312685641,-99999.0,'11133222,11111222,99999999' 
TABS,ioos:station:wmo:42043:1,2017-11-02T06:30:00Z,28.9818,-94.9186,2.0,239.6564012,4.750789408,-99999.0,'11133222,11111222,99999999' 
TABS,ioos:station:wmo:42043:1,2017-11-02T07:00:00Z,28.9818,-94.9186,2.0,217.3663716,6.920260111,-99999.0,'11133222,11111222,99999999' 
TABS,ioos:station:wmo:42043:1,2017-11-02T07:30:00Z,28.9818,-94.9186,2.0,232.1713797,10.76150547,-99999.0,'11111222,11111222,99999999' 
TABS,ioos:station:wmo:42043:1,2017-11-02T08:00:00Z,28.9818,-94.9186,2.0,240.1854861,10.25768005,-99999.0,'11111222,11111222,99999999' 
TABS,ioos:station:wmo:42043:1,2017-11-02T08:30:00Z,28.9818,-94.9186,2.0,251.3839306,10.02447006,-99999.0,'11111222,11111222,99999999' 
TABS,ioos:station:wmo:42043:1,2017-11-02T09:00:00Z,28.9818,-94.9186,2.0,256.7590901,17.4642492,-99999.0,'11111222,11111222,99999999' 
TABS,ioos:station:wmo:42043:1,2017-11-02T09:30:00Z,28.9818,-94.9186,2.0,239.5510267,17.16770223,-99999.0,'11111222,11111222,99999999' 
TABS,ioos:station:wmo:42043:1,2017-11-02T10:00:00Z,28.9818,-94.9186,2.0,249.9543765,15.75436447,-99999.0,'11111222,11111222,99999999' 
TABS,ioos:station:wmo:42043:1,2017-11-02T10:30:00Z,28.9818,-94.9186,2.0,254.271908,18.07678069,-99999.0,'11111222,11111222,99999999' 
TABS,ioos:station:wmo:42043:1,2017-11-02T11:00:00Z,28.9818,-94.9186,2.0,258.9506992,17.21917536,-99999.0,'11111222,11111222,99999999' 
TABS,ioos:station:wmo:42043:1,2017-11-02T11:30:00Z,28.9818,-94.9186,2.0,261.8694957,15.55634919,-99999.0,'11111222,11111222,99999999' 
TABS,ioos:station:wmo:42043:1,2017-11-02T12:00:00Z,28.9818,-94.9186,2.0,267.4303441,15.61569723,-99999.0,'11111222,11111222,99999999' 
TABS,ioos:station:wmo:42043:1,2017-11-02T12:30:00Z,28.9818,-94.9186,2.0,268.6876944,13.10343466,-99999.0,'11111222,11111222,99999999' 
TABS,ioos:station:wmo:42043:1,2017-11-02T13:00:00Z,28.9818,-94.9186,2.0,273.5767469,12.82497563,-99999.0,'11111222,11111222,99999999' 
TABS,ioos:station:wmo:42043:1,2017-11-02T13:30:00Z,28.9818,-94.9186,2.0,289.573501,14.32794472,-99999.0,'11111222,11111222,99999999' 
TABS,ioos:station:wmo:42043:1,2017-11-02T14:00:00Z,28.9818,-94.9186,2.0,285.2933728,13.26989073,-99999.0,'11111222,11111222,99999999' 
TABS,ioos:station:wmo:42043:1,2017-11-02T14:30:00Z,28.9818,-94.9186,2.0,286.5574536,11.58015544,-99999.0,'11111222,11111222,99999999' 
TABS,ioos:station:wmo:42043:1,2017-11-02T15:00:00Z,28.9818,-94.9186,2.0,291.1052102,12.2196563,-99999.0,'11111222,11111222,99999999' 
TABS,ioos:station:wmo:42043:1,2017-11-02T15:30:00Z,28.9818,-94.9186,2.0,288.726165,12.4595345,-99999.0,'11111222,11111222,99999999' 
TABS,ioos:station:wmo:42043:1,2017-11-02T16:00:00Z,28.9818,-94.9186,2.0,300.1919733,12.72635062,-99999.0,'11111222,11111222,99999999' 
TABS,ioos:station:wmo:42043:1,2017-11-02T16:30:00Z,28.9818,-94.9186,2.0,289.3488472,13.88416364,-99999.0,'11111222,11111222,99999999' 
TABS,ioos:station:wmo:42043:1,2017-11-02T17:00:00Z,28.9818,-94.9186,2.0,292.3159573,14.48481964,-99999.0,'11111222,11111222,99999999' 
TABS,ioos:station:wmo:42043:1,2017-11-02T17:30:00Z,28.9818,-94.9186,2.0,295.7584824,15.87765726,-99999.0,'11111222,11111222,99999999' 
TABS,ioos:station:wmo:42043:1,2017-11-02T18:00:00Z,28.9818,-94.9186,2.0,280.2043708,15.24106296,-99999.0,'11111222,11111222,99999999' 
TABS,ioos:station:wmo:42043:1,2017-11-02T18:30:00Z,28.9818,-94.9186,2.0,286.5877207,14.7122398,-99999.0,'11111222,11111222,99999999' 
TABS,ioos:station:wmo:42043:1,2017-11-02T19:00:00Z,28.9818,-94.9186,2.0,290.3235102,17.27541606,-99999.0,'11111222,11111222,99999999' 
TABS,ioos:station:wmo:42043:1,2017-11-02T19:30:00Z,28.9818,-94.9186,2.0,288.090868,15.7800507,-99999.0,'11111222,11111222,99999999' 
TABS,ioos:station:wmo:42043:1,2017-11-02T20:00:00Z,28.9818,-94.9186,2.0,277.4457284,17.74964788,-99999.0,'11111222,11111222,99999999' 
TABS,ioos:station:wmo:42043:1,2017-11-02T20:30:00Z,28.9818,-94.9186,2.0,278.013654,20.80312477,-99999.0,'11111222,11111222,99999999' 
TABS,ioos:station:wmo:42043:1,2017-11-02T21:00:00Z,28.9818,-94.9186,2.0,286.3073882,19.58800653,-99999.0,'11111222,11111222,99999999' 
TABS,ioos:station:wmo:42043:1,2017-11-02T21:30:00Z,28.9818,-94.9186,2.0,277.9375904,21.00119044,-99999.0,'11111222,11111222,99999999' 
TABS,ioos:station:wmo:42043:1,2017-11-02T22:00:00Z,28.9818,-94.9186,2.0,280.1432609,22.14610575,-99999.0,'11111222,11111222,99999999' 
TABS,ioos:station:wmo:42043:1,2017-11-02T22:30:00Z,28.9818,-94.9186,2.0,273.4446154,21.63908501,-99999.0,'11111222,11111222,99999999' 
TABS,ioos:station:wmo:42043:1,2017-11-02T23:00:00Z,28.9818,-94.9186,2.0,272.2572096,20.31575743,-99999.0,'11111222,11111222,99999999' 
TABS,ioos:station:wmo:42043:1,2017-11-02T23:30:00Z,28.9818,-94.9186,2.0,269.2619077,23.30193125,-99999.0,'11111222,11111222,99999999' 
TABS,ioos:station:wmo:42043:1,2017-11-03T00:00:00Z,28.9818,-94.9186,2.0,277.5807761,26.53186763,-99999.0,'11111222,11111222,99999999' 
TABS,ioos:station:wmo:42043:1,2017-11-03T00:30:00Z,28.9818,-94.9186,2.0,278.7118381,25.08944001,-99999.0,'11111222,11111222,99999999' 
TABS,ioos:station:wmo:42043:1,2017-11-03T01:00:00Z,28.9818,-94.9186,2.0,278.021092,22.21733557,-99999.0,'11111222,11111222,99999999' 
TABS,ioos:station:wmo:42043:1,2017-11-03T01:30:00Z,28.9818,-94.9186,2.0,273.2075989,23.23639387,-99999.0,'11111222,11111222,99999999' 
TABS,ioos:station:wmo:42043:1,2017-11-03T02:00:00Z,28.9818,-94.9186,2.0,273.7194062,20.04220547,-99999.0,'11111222,11111222,99999999' 
TABS,ioos:station:wmo:42043:1,2017-11-03T02:30:00Z,28.9818,-94.9186,2.0,270.2799097,20.5002439,-99999.0,'11111222,11111222,99999999' 
TABS,ioos:station:wmo:42043:1,2017-11-03T03:00:00Z,28.9818,-94.9186,2.0,269.469079,21.60092591,-99999.0,'11111222,11111222,99999999' 
TABS,ioos:station:wmo:42043:1,2017-11-03T03:30:00Z,28.9818,-94.9186,2.0,275.9957937,22.02044505,-99999.0,'11111222,11111222,99999999' 
TABS,ioos:station:wmo:42043:1,2017-11-03T04:00:00Z,28.9818,-94.9186,2.0,271.1755514,19.50410213,-99999.0,'11111222,11111222,99999999' 
TABS,ioos:station:wmo:42043:1,2017-11-03T04:30:00Z,28.9818,-94.9186,2.0,274.8109959,20.27140844,-99999.0,'11111222,11111222,99999999' 
TABS,ioos:station:wmo:42043:1,2017-11-03T05:00:00Z,28.9818,-94.9186,2.0,264.972623,21.68340379,-99999.0,'11111222,11111222,99999999' 
TABS,ioos:station:wmo:42043:1,2017-11-03T05:30:00Z,28.9818,-94.9186,2.0,262.6565881,19.56041922,-99999.0,'11111222,11111222,99999999' 
TABS,ioos:station:wmo:42043:1,2017-11-03T06:00:00Z,28.9818,-94.9186,2.0,262.464533,19.06462693,-99999.0,'11111222,11111222,99999999' 
TABS,ioos:station:wmo:42043:1,2017-11-03T06:30:00Z,28.9818,-94.9186,2.0,257.195343,20.30492551,-99999.0,'11111222,11111222,99999999' 
TABS,ioos:station:wmo:42043:1,2017-11-03T07:00:00Z,28.9818,-94.9186,2.0,258.2744945,21.65178976,-99999.0,'11111222,11111222,99999999' 
TABS,ioos:station:wmo:42043:1,2017-11-03T07:30:00Z,28.9818,-94.9186,2.0,254.5497792,20.646065,-99999.0,'11111222,11111222,99999999' 
TABS,ioos:station:wmo:42043:1,2017-11-03T08:00:00Z,28.9818,-94.9186,2.0,253.1040727,22.36537502,-99999.0,'11111222,11111222,99999999' 
TABS,ioos:station:wmo:42043:1,2017-11-03T08:30:00Z,28.9818,-94.9186,2.0,250.709578,23.30858211,-99999.0,'11111222,11111222,99999999' 
TABS,ioos:station:wmo:42043:1,2017-11-03T09:00:00Z,28.9818,-94.9186,2.0,249.4963646,25.40964384,-99999.0,'11111222,11111222,99999999' 
TABS,ioos:station:wmo:42043:1,2017-11-03T09:30:00Z,28.9818,-94.9186,2.0,251.2810339,25.55151659,-99999.0,'11111222,11111222,99999999' 
TABS,ioos:station:wmo:42043:1,2017-11-03T10:00:00Z,28.9818,-94.9186,2.0,255.9633684,25.15094432,-99999.0,'11111222,11111222,99999999' 
TABS,ioos:station:wmo:42043:1,2017-11-03T10:30:00Z,28.9818,-94.9186,2.0,249.1972094,24.49693858,-99999.0,'11111222,11111222,99999999' 
TABS,ioos:station:wmo:42043:1,2017-11-03T11:00:00Z,28.9818,-94.9186,2.0,246.0137315,24.84552274,-99999.0,'11111222,11111222,99999999' 
TABS,ioos:station:wmo:42043:1,2017-11-03T11:30:00Z,28.9818,-94.9186,2.0,248.0611499,23.28626204,-99999.0,'11111222,11111222,99999999' 
TABS,ioos:station:wmo:42043:1,2017-11-03T12:00:00Z,28.9818,-94.9186,2.0,246.6201098,24.94834664,-99999.0,'11111222,11111222,99999999' 
TABS,ioos:station:wmo:42043:1,2017-11-03T12:30:00Z,28.9818,-94.9186,2.0,246.6389164,23.20193957,-99999.0,'11111222,11111222,99999999' 
TABS,ioos:station:wmo:42043:1,2017-11-03T13:00:00Z,28.9818,-94.9186,2.0,250.88665,21.37849387,-99999.0,'11111222,11111222,99999999' 
TABS,ioos:station:wmo:42043:1,2017-11-03T13:30:00Z,28.9818,-94.9186,2.0,253.0477245,19.54942454,-99999.0,'11111222,11111222,99999999' 
TABS,ioos:station:wmo:42043:1,2017-11-03T14:00:00Z,28.9818,-94.9186,2.0,251.6721698,16.85496959,-99999.0,'11111222,11111222,99999999' 
TABS,ioos:station:wmo:42043:1,2017-11-03T14:30:00Z,28.9818,-94.9186,2.0,249.596881,17.49771414,-99999.0,'11111222,11111222,99999999' 
TABS,ioos:station:wmo:42043:1,2017-11-03T15:00:00Z,28.9818,-94.9186,2.0,251.1658702,13.62974688,-99999.0,'11111222,11111222,99999999' 
TABS,ioos:station:wmo:42043:1,2017-11-03T15:30:00Z,28.9818,-94.9186,2.0,257.216155,12.20245877,-99999.0,'11111222,11111222,99999999' 
TABS,ioos:station:wmo:42043:1,2017-11-03T16:00:00Z,28.9818,-94.9186,2.0,255.9633684,11.13238519,-99999.0,'11111222,11111222,99999999' 
TABS,ioos:station:wmo:42043:1,2017-11-03T16:30:00Z,28.9818,-94.9186,2.0,255.5098504,9.192388155,-99999.0,'11133222,11111222,99999999' 
TABS,ioos:station:wmo:42043:1,2017-11-03T17:00:00Z,28.9818,-94.9186,2.0,259.5304293,9.355746897,-99999.0,'11133222,11111222,99999999' 
TABS,ioos:station:wmo:42043:1,2017-11-03T17:30:00Z,28.9818,-94.9186,2.0,296.2117376,7.244998275,-99999.0,'11133222,11111222,99999999' 
TABS,ioos:station:wmo:42043:1,2017-11-03T18:00:00Z,28.9818,-94.9186,2.0,287.1622996,7.116881339,-99999.0,'11133222,11111222,99999999' 
TABS,ioos:station:wmo:42043:1,2017-11-03T18:30:00Z,28.9818,-94.9186,2.0,269.1692655,6.9007246,-99999.0,'11133222,11111222,99999999' 
TABS,ioos:station:wmo:42043:1,2017-11-03T19:00:00Z,28.9818,-94.9186,2.0,279.2937078,5.573149917,-99999.0,'11133222,11111222,99999999' 
TABS,ioos:station:wmo:42043:1,2017-11-03T19:30:00Z,28.9818,-94.9186,2.0,271.9095689,6.003332408,-99999.0,'11133222,11111222,99999999' 
TABS,ioos:station:wmo:42043:1,2017-11-03T20:00:00Z,28.9818,-94.9186,2.0,274.6110595,6.220128616,-99999.0,'11133222,11111222,99999999' 
TABS,ioos:station:wmo:42043:1,2017-11-03T20:30:00Z,28.9818,-94.9186,2.0,270.0004209,9.4,-99999.0,'11133222,11111222,99999999' 
TABS,ioos:station:wmo:42043:1,2017-11-03T21:00:00Z,28.9818,-94.9186,2.0,261.1189407,9.716480844,-99999.0,'11133222,11111222,99999999' 
TABS,ioos:station:wmo:42043:1,2017-11-03T21:30:00Z,28.9818,-94.9186,2.0,262.4049535,9.07964757,-99999.0,'11133222,11111222,99999999' 
TABS,ioos:station:wmo:42043:1,2017-11-03T22:00:00Z,28.9818,-94.9186,2.0,266.9331008,11.21605991,-99999.0,'11111222,11111222,99999999' 
TABS,ioos:station:wmo:42043:1,2017-11-03T22:30:00Z,28.9818,-94.9186,2.0,258.5971115,12.13960461,-99999.0,'11111222,11111222,99999999' 
TABS,ioos:station:wmo:42043:1,2017-11-03T23:00:00Z,28.9818,-94.9186,2.0,253.0503945,10.9767937,-99999.0,'11111222,11111222,99999999' 
TABS,ioos:station:wmo:42043:1,2017-11-03T23:30:00Z,28.9818,-94.9186,2.0,253.1058884,14.10886246,-99999.0,'11111222,11111222,99999999' 
TABS,ioos:station:wmo:42043:1,2017-11-04T00:00:00Z,28.9818,-94.9186,2.0,256.3605589,13.99464183,-99999.0,'11111222,11111222,99999999' 
TABS,ioos:station:wmo:42043:1,2017-11-04T00:30:00Z,28.9818,-94.9186,2.0,267.6300766,14.51240848,-99999.0,'11111222,11111222,99999999' 
TABS,ioos:station:wmo:42043:1,2017-11-04T01:00:00Z,28.9818,-94.9186,2.0,277.2449108,11.89495691,-99999.0,'11111222,11111222,99999999' 
TABS,ioos:station:wmo:42043:1,2017-11-04T01:30:00Z,28.9818,-94.9186,2.0,278.3511539,11.01680534,-99999.0,'11111222,11111222,99999999' 
TABS,ioos:station:wmo:42043:1,2017-11-04T02:00:00Z,28.9818,-94.9186,2.0,292.3198091,10.26937194,-99999.0,'11111222,11111222,99999999' 
TABS,ioos:station:wmo:42043:1,2017-11-04T02:30:00Z,28.9818,-94.9186,2.0,304.5088632,11.6498927,-99999.0,'11111222,11111222,99999999' 
TABS,ioos:station:wmo:42043:1,2017-11-04T03:00:00Z,28.9818,-94.9186,2.0,301.9503177,10.9603832,-99999.0,'11111222,11111222,99999999' 
TABS,ioos:station:wmo:42043:1,2017-11-04T03:30:00Z,28.9818,-94.9186,2.0,309.0121813,10.16710382,-99999.0,'11111222,11111222,99999999' 
TABS,ioos:station:wmo:42043:1,2017-11-04T04:00:00Z,28.9818,-94.9186,2.0,316.0812373,11.24499889,-99999.0,'11111222,11111222,99999999' 
TABS,ioos:station:wmo:42043:1,2017-11-04T04:30:00Z,28.9818,-94.9186,2.0,319.7337429,11.13956911,-99999.0,'11111222,11111222,99999999' 
TABS,ioos:station:wmo:42043:1,2017-11-04T05:00:00Z,28.9818,-94.9186,2.0,308.3336714,10.96357606,-99999.0,'11111222,11111222,99999999' 
TABS,ioos:station:wmo:42043:1,2017-11-04T05:30:00Z,28.9818,-94.9186,2.0,312.117359,9.841239759,-99999.0,'11133222,11111222,99999999' 
TABS,ioos:station:wmo:42043:1,2017-11-04T06:00:00Z,28.9818,-94.9186,2.0,313.2379288,9.196738552,-99999.0,'11133222,11111222,99999999' 
TABS,ioos:station:wmo:42043:1,2017-11-04T06:30:00Z,28.9818,-94.9186,2.0,304.5350017,11.28937554,-99999.0,'11111222,11111222,99999999' 
TABS,ioos:station:wmo:42043:1,2017-11-04T07:00:00Z,28.9818,-94.9186,2.0,313.1527097,10.9658561,-99999.0,'11111222,11111222,99999999' 
TABS,ioos:station:wmo:42043:1,2017-11-04T07:30:00Z,28.9818,-94.9186,2.0,300.6189547,11.38771268,-99999.0,'11111222,11111222,99999999' 
TABS,ioos:station:wmo:42043:1,2017-11-04T08:00:00Z,28.9818,-94.9186,2.0,290.7145473,12.72242115,-99999.0,'11111222,11111222,99999999' 
TABS,ioos:station:wmo:42043:1,2017-11-04T08:30:00Z,28.9818,-94.9186,2.0,291.1464656,11.36529806,-99999.0,'11111222,11111222,99999999' 
TABS,ioos:station:wmo:42043:1,2017-11-04T09:00:00Z,28.9818,-94.9186,2.0,291.5716777,13.87155363,-99999.0,'11111222,11111222,99999999' 
TABS,ioos:station:wmo:42043:1,2017-11-04T09:30:00Z,28.9818,-94.9186,2.0,278.0116338,13.63304808,-99999.0,'11111222,11111222,99999999' 
TABS,ioos:station:wmo:42043:1,2017-11-04T10:00:00Z,28.9818,-94.9186,2.0,274.0338226,15.63873396,-99999.0,'11111222,11111222,99999999' 
TABS,ioos:station:wmo:42043:1,2017-11-04T10:30:00Z,28.9818,-94.9186,2.0,268.3344769,17.20726591,-99999.0,'11111222,11111222,99999999' 
TABS,ioos:station:wmo:42043:1,2017-11-04T11:00:00Z,28.9818,-94.9186,2.0,267.6958241,17.41407477,-99999.0,'11111222,11111222,99999999' 
TABS,ioos:station:wmo:42043:1,2017-11-04T11:30:00Z,28.9818,-94.9186,2.0,261.3744161,18.00361075,-99999.0,'11111222,11111222,99999999' 
TABS,ioos:station:wmo:42043:1,2017-11-04T12:00:00Z,28.9818,-94.9186,2.0,265.8224819,17.84740878,-99999.0,'11111222,11111222,99999999' 
TABS,ioos:station:wmo:42043:1,2017-11-04T12:30:00Z,28.9818,-94.9186,2.0,259.0884762,16.90562037,-99999.0,'11111222,11111222,99999999' 
TABS,ioos:station:wmo:42043:1,2017-11-04T13:00:00Z,28.9818,-94.9186,2.0,262.3545837,15.03362897,-99999.0,'11111222,11111222,99999999' 
TABS,ioos:station:wmo:42043:1,2017-11-04T13:30:00Z,28.9818,-94.9186,2.0,269.1692655,13.8014492,-99999.0,'11111222,11111222,99999999' 
TABS,ioos:station:wmo:42043:1,2017-11-04T14:00:00Z,28.9818,-94.9186,2.0,270.448034,12.80039062,-99999.0,'11111222,11111222,99999999' 
TABS,ioos:station:wmo:42043:1,2017-11-04T14:30:00Z,28.9818,-94.9186,2.0,264.9571398,10.2396289,-99999.0,'11111222,11111222,99999999' 
TABS,ioos:station:wmo:42043:1,2017-11-04T15:00:00Z,28.9818,-94.9186,2.0,270.8130706,14.10141837,-99999.0,'11111222,11111222,99999999' 
TABS,ioos:station:wmo:42043:1,2017-11-04T15:30:00Z,28.9818,-94.9186,2.0,268.4084425,14.40555448,-99999.0,'11111222,11111222,99999999' 
TABS,ioos:station:wmo:42043:1,2017-11-04T16:00:00Z,28.9818,-94.9186,2.0,263.8444251,10.25914226,-99999.0,'11111222,11111222,99999999' 